Voltar ao catálogo

STARLINK-5948

AtivoComunicaçõesVLEO
NORAD 55991·PAYLOAD·🇺🇸 United States

Lançado Mar 24, 2023 de Cape Canaveral Space Force Station

Loading…

Próximas Passagens (próximas 24 horas)

TLE

AtualizadoSource: CelesTrak SupGP

Época: Sep 15, 2026, 02:08 UTC

1 55991C 23042F   26258.08937500 -.00029100  00000+0 -10539-2 0  2586
2 55991  43.0023  66.5495 0002019 269.0141 172.6727 15.27596564    16

Acompanhe STARLINK-5948 em tempo real com AllMySat

Download on the App Store